Precipitable_Water
2.35 2.40 2.23 2.00 1.18 1.01 0.86 0.89 1.02 0.95 1.02 1.19 1.27 1.14 1.04 1.00 0.93 0.77 1.58 1.83 1.94 1.94 2.11 2.11 1.98 1.93 1.88 1.78 1.69 1.66 1.63 1.66 1.68 1.70 1.68 1.70 1.73 1.74 1.76 1.75 1.76 1.79 1.76 1.74 1.77 1.80 1.81 1.80 1.75
2.39 2.32 2.15 1.52 0.92 0.70 0.73 1.05 0.94 1.12 1.18 1.25 1.13 1.07 1.01 0.93 1.25 1.20 1.46 1.82 1.89 1.92 1.96 1.97 1.93 1.93 1.83 1.79 1.72 1.67 1.67 1.71 1.71 1.69 1.65 1.68 1.73 1.76 1.77 1.77 1.75 1.76 1.76 1.73 1.73 1.70 1.74 1.74 1.74
2.35 2.33 1.66 1.18 0.89 0.64 0.65 0.94 1.03 1.21 1.15 1.10 1.03 1.03 1.00 0.99 1.23 1.34 1.64 1.74 1.81 1.88 1.89 1.87 1.90 1.89 1.82 1.78 1.74 1.67 1.64 1.65 1.67 1.65 1.64 1.62 1.64 1.71 1.74 1.74 1.74 1.78 1.77 1.74 1.76 1.75 1.74 1.70 1.69
2.07 1.92 1.66 0.98 0.73 0.89 1.00 1.08 1.18 1.02 1.20 1.21 1.01 0.83 1.11 1.30 1.29 1.47 1.63 1.64 1.71 1.79 1.87 1.85 1.85 1.86 1.84 1.78 1.75 1.73 1.73 1.67 1.63 1.60 1.62 1.62 1.61 1.60 1.61 1.65 1.68 1.72 1.73 1.75 1.72 1.75 1.78 1.73 1.76
1.84 1.58 1.06 0.86 0.89 1.03 1.16 1.31 1.14 1.01 1.02 1.02 1.04 0.90 1.03 1.36 1.47 1.54 1.53 1.57 1.56 1.71 1.88 1.84 1.83 1.84 1.83 1.81 1.80 1.81 1.76 1.70 1.69 1.68 1.65 1.64 1.60 1.57 1.59 1.60 1.66 1.69 1.72 1.69 1.70 1.72 1.73 1.73 1.71
1.39 1.42 0.95 0.81 0.90 1.05 1.11 1.20 1.20 1.06 1.03 1.02 0.92 0.91 1.07 1.43 1.43 1.49 1.50 1.44 1.48 1.58 1.75 1.82 1.75 1.75 1.78 1.80 1.82 1.84 1.76 1.72 1.71 1.67 1.63 1.61 1.61 1.63 1.64 1.63 1.62 1.64 1.68 1.71 1.71 1.72 1.71 1.73 1.70
1.25 1.18 0.98 0.93 0.84 0.89 1.04 1.16 0.98 0.99 0.97 0.98 1.07 0.84 1.20 1.39 1.49 1.60 1.54 1.47 1.45 1.50 1.59 1.69 1.75 1.78 1.79 1.76 1.76 1.78 1.79 1.75 1.67 1.63 1.66 1.67 1.71 1.74 1.77 1.74 1.77 1.76 1.73 1.80 1.73 1.74 1.72 1.74 1.74
1.39 1.23 1.02 1.02 0.85 0.89 1.03 1.15 1.11 1.00 0.92 1.14 1.17 0.87 0.99 1.41 1.62 1.72 1.69 1.52 1.40 1.46 1.49 1.58 1.65 1.69 1.66 1.66 1.72 1.71 1.67 1.66 1.69 1.68 1.72 1.80 1.75 1.73 1.76 1.79 1.83 1.85 1.82 1.83 1.85 1.81 1.82 1.77 1.74
1.57 1.03 0.90 0.93 0.88 0.96 1.03 1.05 1.19 1.17 1.05 1.09 1.13 1.01 1.23 1.50 1.66 1.66 1.60 1.49 1.42 1.38 1.44 1.54 1.52 1.51 1.56 1.62 1.60 1.62 1.66 1.67 1.68 1.68 1.65 1.75 1.71 1.83 1.78 1.75 1.73 1.74 1.82 1.81 1.82 1.79 1.81 1.85 1.83
1.36 1.06 0.93 1.06 1.18 1.11 1.10 1.15 1.24 1.17 1.05 1.10 1.04 1.13 1.31 1.49 1.51 1.48 1.47 1.38 1.38 1.24 1.34 1.41 1.48 1.46 1.51 1.56 1.60 1.57 1.60 1.63 1.63 1.83 1.99 2.01 1.99 1.98 2.05 2.08 2.03 1.87 1.81 1.82 1.82 1.93 1.85 1.84 1.84
1.26 1.17 1.27 1.32 1.30 1.29 1.37 1.23 1.18 1.14 0.97 1.01 0.96 0.98 1.20 1.36 1.43 1.42 1.46 1.41 1.41 1.50 1.59 1.56 1.59 1.63 1.55 1.54 1.58 1.58 1.62 1.68 1.78 1.89 2.00 2.02 2.01 1.96 2.00 2.04 2.06 2.09 2.06 2.16 2.11 2.14 2.13 1.99 2.07
1.11 1.25 1.35 1.32 1.36 1.33 1.23 1.31 1.15 1.01 0.98 1.08 1.12 1.03 1.14 1.26 1.30 1.36 1.37 1.46 1.49 1.59 1.64 1.67 1.66 1.65 1.67 1.61 1.62 1.70 1.71 1.87 1.74 1.88 1.97 1.98 1.96 1.96 2.01 2.03 2.08 2.07 2.14 2.11 2.16 2.18 2.20 2.23 2.18
1.07 1.17 1.28 1.26 1.46 1.45 1.30 1.22 1.19 1.03 1.09 1.19 1.18 1.02 1.08 1.21 1.30 1.33 1.37 1.46 1.50 1.52 1.62 1.65 1.66 1.63 1.72 1.75 1.83 1.85 1.81 1.85 1.91 1.92 1.90 1.96 1.95 1.95 1.99 1.97 2.05 2.14 2.12 2.05 2.01 2.16 2.22 2.22 2.22
1.00 1.15 1.14 1.20 1.30 1.33 1.19 1.27 1.21 1.13 1.12 1.15 1.13 0.93 1.07 1.13 1.18 1.21 1.30 1.35 1.46 1.53 1.56 1.62 1.60 1.60 1.71 1.69 1.80 1.87 1.90 1.88 1.94 1.94 1.97 1.98 1.99 1.98 1.95 2.00 2.12 2.25 2.34 2.31 2.24 2.06 2.13 2.17 2.22
0.96 1.02 1.05 1.10 1.18 1.22 1.28 1.12 1.07 1.08 1.12 1.08 1.06 0.96 1.00 1.12 1.19 1.15 1.25 1.32 1.40 1.45 1.52 1.54 1.57 1.66 1.66 1.68 1.69 1.74 1.84 1.75 1.84 1.86 1.91 1.97 1.94 1.79 1.86 2.02 2.05 2.22 2.28 2.32 2.32 2.29 2.10 2.14 2.14
0.85 0.89 0.82 1.09 1.12 1.14 1.09 0.88 1.13 1.14 1.02 1.00 1.04 0.98 0.99 1.04 1.14 1.21 1.27 1.35 1.42 1.45 1.48 1.55 1.58 1.63 1.66 1.54 1.61 1.63 1.64 1.66 1.74 1.88 1.88 1.92 1.90 1.81 1.84 1.91 1.95 2.17 2.23 2.29 2.35 2.29 2.01 2.01 2.02
0.76 0.64 0.70 0.83 1.07 1.03 0.99 0.85 1.07 1.12 0.98 0.97 1.01 0.97 1.02 1.02 1.08 1.16 1.27 1.33 1.35 1.42 1.47 1.48 1.53 1.52 1.50 1.51 1.51 1.52 1.59 1.69 1.80 1.81 1.83 1.79 1.76 1.84 1.98 1.88 1.93 2.05 2.14 2.27 2.28 2.18 2.12 1.99 2.00
0.54 0.62 0.69 0.68 0.90 0.97 0.90 0.85 1.04 1.04 0.93 0.94 0.98 0.96 1.00 1.02 1.04 1.15 1.23 1.28 1.31 1.35 1.41 1.45 1.47 1.50 1.49 1.42 1.60 1.63 1.72 1.81 1.81 2.00 1.79 1.84 1.93 1.96 1.85 1.71 1.72 1.87 1.93 1.98 2.09 2.01 1.99 1.90 1.91
0.53 0.61 0.61 0.71 0.90 0.90 0.85 0.82 0.92 1.10 0.99 0.94 0.96 1.01 1.02 1.02 1.13 1.23 1.29 1.32 1.24 1.26 1.35 1.40 1.43 1.48 1.53 1.52 1.51 1.57 1.61 1.73 1.76 1.81 1.88 1.89 1.97 1.90 1.76 1.66 1.53 1.71 1.79 1.85 1.94 1.89 1.80 1.82 1.99
0.51 0.54 0.53 0.65 0.87 0.85 0.84 0.78 0.89 1.07 1.10 1.04 0.96 0.98 1.05 1.09 1.11 1.20 1.28 1.34 1.28 1.23 1.31 1.38 1.41 1.46 1.52 1.56 1.50 1.57 1.73 1.84 1.88 1.97 1.95 2.02 1.99 1.97 1.85 1.67 1.37 1.43 1.67 1.75 1.80 1.80 1.76 1.82 1.93
0.41 0.43 0.49 0.52 0.77 0.83 0.79 0.68 0.80 1.00 1.13 1.16 1.20 1.11 1.13 1.13 1.14 1.17 1.24 1.29 1.32 1.25 1.29 1.37 1.40 1.40 1.49 1.52 1.53 1.62 1.81 1.87 1.93 1.92 1.81 1.75 1.83 1.74 1.84 1.65 1.32 1.33 1.39 1.54 1.67 1.74 1.67 1.54 1.67
0.32 0.36 0.38 0.39 0.40 0.37 0.69 0.50 0.70 0.85 0.93 1.03 1.19 1.24 1.22 1.20 1.23 1.20 1.21 1.24 1.26 1.30 1.42 1.49 1.45 1.41 1.45 1.48 1.47 1.52 1.57 1.62 1.63 1.74 1.87 1.74 1.80 1.66 1.81 1.58 1.33 1.27 1.32 1.28 1.45 1.55 1.48 1.45 1.28
0.27 0.31 0.33 0.37 0.42 0.44 0.51 0.48 0.58 0.80 0.78 0.98 1.14 1.23 1.29 1.29 1.26 1.22 1.21 1.27 1.34 1.32 1.43 1.55 1.57 1.46 1.39 1.39 1.43 1.50 1.55 1.62 1.69 1.62 1.77 1.84 1.83 1.58 1.57 1.61 1.37 1.28 1.38 1.30 1.34 1.40 1.35 1.36 1.25
0.20 0.30 0.33 0.44 0.45 0.38 0.50 0.50 0.53 0.62 0.70 0.91 1.11 1.24 1.28 1.30 1.32 1.32 1.28 1.32 1.34 1.34 1.40 1.54 1.58 1.48 1.38 1.34 1.36 1.39 1.46 1.51 1.52 1.64 1.67 1.83 1.73 1.51 1.54 1.64 1.35 1.33 1.34 1.29 1.40 1.41 1.33 1.30 1.27
0.17 0.17 0.20 0.27 0.37 0.38 0.49 0.48 0.50 0.60 0.72 0.86 0.99 1.12 1.20 1.27 1.35 1.35 1.29 1.26 1.32 1.34 1.34 1.45 1.51 1.45 1.46 1.31 1.34 1.43 1.48 1.54 1.55 1.53 1.63 1.66 1.72 1.58 1.55 1.67 1.46 1.23 1.31 1.42 1.38 1.24 1.19 1.14 1.18
0.19 0.18 0.17 0.20 0.25 0.31 0.46 0.46 0.54 0.64 0.71 0.80 1.01 1.08 1.12 1.21 1.29 1.33 1.33 1.28 1.34 1.36 1.35 1.36 1.42 1.44 1.47 1.38 1.30 1.37 1.44 1.53 1.51 1.51 1.55 1.67 1.71 1.58 1.77 1.75 1.61 1.36 1.28 1.31 1.30 1.25 1.27 1.21 1.09
0.19 0.17 0.23 0.22 0.32 0.29 0.42 0.55 0.70 0.83 0.83 0.85 0.97 1.02 1.06 1.12 1.22 1.28 1.31 1.33 1.35 1.36 1.34 1.35 1.39 1.42 1.50 1.47 1.41 1.34 1.34 1.39 1.40 1.49 1.54 1.68 1.88 1.79 1.80 1.85 1.78 1.71 1.30 1.24 1.24 1.21 1.21 1.21 1.11
0.22 0.24 0.18 0.24 0.22 0.32 0.43 0.48 0.58 0.68 0.78 0.91 0.95 0.92 0.98 1.11 1.19 1.22 1.26 1.30 1.32 1.38 1.41 1.41 1.44 1.41 1.47 1.53 1.48 1.41 1.36 1.35 1.36 1.46 1.50 1.58 1.75 1.69 1.84 2.01 1.90 1.88 1.57 1.24 1.25 1.20 1.19 1.11 1.08
0.24 0.23 0.21 0.19 0.23 0.21 0.22 0.48 0.78 0.68 0.78 0.92 0.95 0.91 0.86 1.00 1.14 1.14 1.20 1.24 1.23 1.29 1.36 1.40 1.42 1.40 1.42 1.46 1.46 1.46 1.43 1.42 1.42 1.39 1.46 1.52 1.62 1.77 1.92 2.07 2.07 1.97 1.75 1.61 1.44 1.40 1.35 1.20 1.04
0.32 0.28 0.25 0.20 0.16 0.23 0.25 0.28 0.70 0.70 0.75 0.99 0.99 0.95 0.93 1.00 1.05 1.10 1.18 1.21 1.17 1.19 1.20 1.27 1.37 1.39 1.37 1.39 1.38 1.37 1.44 1.45 1.39 1.39 1.42 1.51 1.62 1.94 2.13 2.18 2.14 2.13 1.91 1.80 1.68 1.65 1.57 1.44 1.17
Wind_Speed
10 9 8 8 8 10 8 9 10 12 8 5 7 3 5 7 6 8 17 16 18 17 18 19 20 20 19 19 18 17 16 16 16 16 16 16 15 14 14 14 14 14 13 14 13 13 12 12 11
9 9 7 7 8 10 8 9 10 11 12 12 10 9 6 6 7 15 16 18 18 18 18 19 20 19 19 18 17 17 16 16 15 16 16 15 14 14 13 13 13 12 12 13 12 12 11 10 10
6 6 6 7 7 7 7 9 11 11 9 9 8 9 7 7 14 15 16 18 19 19 19 19 19 19 18 17 16 16 15 15 15 15 14 14 13 13 12 12 12 11 11 11 10 10 9 9 9
5 5 6 7 6 5 8 10 12 12 9 10 12 9 10 11 14 15 18 19 19 19 19 19 19 18 18 16 15 15 15 14 14 14 13 12 12 12 12 11 11 10 10 9 8 8 7 7 8
5 7 8 6 6 8 10 12 13 12 9 10 11 11 13 12 15 18 19 19 19 19 19 19 18 17 17 15 15 14 14 13 13 13 12 11 10 10 10 9 9 8 7 7 6 6 6 6 6
7 6 7 6 6 7 10 12 9 11 10 11 13 14 11 17 19 19 19 18 19 19 19 19 18 17 16 15 14 14 13 13 12 11 10 9 8 8 7 7 6 6 5 5 5 4 4 4 4
7 6 4 4 6 6 7 12 11 11 12 9 13 12 14 17 19 19 18 18 18 19 19 18 17 16 15 15 14 14 13 12 11 10 9 8 7 6 6 5 5 4 4 3 3 2 3 3 3
9 6 5 4 4 4 5 11 10 9 8 13 13 10 15 19 20 18 18 17 19 18 18 18 17 16 15 15 14 13 12 11 10 9 8 7 6 5 5 4 3 2 2 2 1 1 1 1 1
8 6 4 3 5 5 7 12 8 9 13 11 5 13 18 20 19 19 18 17 17 17 18 17 16 16 15 14 13 13 11 10 9 8 7 6 6 5 4 3 2 1 1 1 2 2 2 1 1
10 12 10 7 5 4 2 9 12 9 12 8 12 15 19 20 20 18 17 17 17 18 17 16 16 15 14 14 13 12 11 10 9 8 6 6 5 4 3 2 1 1 1 2 2 2 3 3 3
5 5 4 1 6 4 7 7 8 8 6 10 12 16 19 19 18 17 16 16 16 17 16 16 15 14 14 13 12 11 10 9 8 7 6 5 4 3 2 1 0 1 3 2 3 4 3 3 3
8 5 5 4 5 2 5 9 4 4 7 11 11 15 17 18 18 16 15 15 16 16 16 15 15 13 13 12 11 10 9 8 8 6 5 5 3 2 1 1 2 3 4 4 5 5 5 4 4
6 2 5 9 7 2 5 2 3 6 11 11 11 14 14 16 17 15 15 16 16 16 15 14 13 12 11 10 10 9 8 8 6 5 5 4 2 1 1 2 3 5 6 7 7 7 7 6 5
7 6 4 8 8 8 3 1 7 9 12 11 10 12 13 14 15 14 15 16 16 15 14 13 12 11 10 10 9 8 8 6 5 4 4 3 1 2 3 3 4 6 7 8 8 8 8 6 6
4 4 4 6 5 9 10 6 6 7 11 11 9 12 13 14 14 13 15 16 15 14 13 12 12 10 9 9 8 7 7 5 5 5 4 2 1 2 3 4 6 8 9 10 10 9 7 6 6
4 5 6 4 5 6 10 4 5 6 10 11 11 12 13 14 14 13 15 15 14 14 13 12 11 10 9 9 8 7 7 5 4 3 4 2 1 2 3 5 7 9 10 8 7 6 6 5 4
3 5 3 3 3 5 8 7 4 6 9 12 11 11 12 13 13 14 15 15 14 14 13 11 10 9 9 8 7 8 7 5 3 3 3 2 1 1 3 5 7 9 10 5 3 4 4 4 3
2 4 6 2 5 1 5 6 4 7 10 13 12 11 11 13 14 14 15 15 14 14 13 11 10 9 8 8 8 8 7 5 4 3 1 2 1 2 3 4 7 9 9 8 8 8 6 4 4
4 3 3 3 3 3 2 5 2 7 9 12 12 11 11 12 13 14 15 15 14 14 13 11 11 10 10 9 8 7 6 4 3 2 1 1 2 1 1 3 5 7 9 9 10 9 8 6 4
4 2 8 4 5 2 3 4 2 5 8 12 14 13 11 10 13 15 16 16 14 15 14 12 11 11 11 10 8 8 6 4 3 2 3 4 3 1 0 2 3 4 6 7 7 7 6 5 4
3 1 3 1 6 4 2 6 3 5 5 8 13 15 13 11 13 15 16 16 15 15 14 12 11 11 11 11 9 9 6 3 2 3 2 0 2 1 1 2 2 2 3 3 4 4 3 3 3
3 2 3 3 1 3 4 4 4 6 9 8 12 16 15 12 15 15 16 16 15 16 15 12 11 11 12 11 10 10 6 3 1 2 2 2 1 1 1 1 2 1 1 2 2 2 1 2 2
6 4 3 3 2 3 5 3 4 6 7 10 12 14 17 15 16 16 16 17 15 16 15 13 11 10 12 12 12 11 8 5 4 3 2 1 1 1 1 1 1 1 1 1 1 1 1 1 1
5 3 4 3 3 2 2 1 3 4 9 7 10 13 17 16 17 16 15 16 15 15 15 14 13 11 12 12 12 11 10 7 6 4 3 2 2 1 0 1 1 1 1 1 1 1 1 1 2
3 2 3 2 2 0 3 3 5 5 6 9 11 13 16 17 15 16 16 15 16 15 15 15 14 13 12 12 12 11 10 9 8 6 4 3 2 2 1 0 1 0 1 0 1 2 1 2 2
5 5 6 7 6 9 8 3 3 4 5 10 10 12 13 18 15 16 16 15 15 16 16 15 15 14 13 12 12 12 11 9 8 7 6 5 4 1 2 1 1 2 2 2 2 2 2 2 3
7 6 9 6 5 6 5 2 2 4 6 5 8 10 13 16 16 15 16 16 14 15 16 16 15 14 13 12 12 12 12 11 9 8 8 7 6 4 4 4 3 3 3 3 4 4 4 5 5
8 6 6 5 4 2 3 5 6 1 3 1 6 8 11 15 16 14 15 15 14 14 15 16 16 15 14 13 13 12 12 11 11 9 8 8 7 6 6 6 5 5 5 6 7 8 8 8 8
7 7 4 8 8 7 6 8 9 6 4 9 8 8 9 15 16 14 13 13 13 14 14 15 15 15 14 14 13 12 12 11 11 11 10 9 9 9 9 9 7 8 8 8 11 12 12 12 12
7 8 8 7 11 8 8 10 14 12 9 12 10 8 9 13 14 14 13 13 12 13 13 13 15 14 14 14 13 13 12 11 12 11 11 11 10 10 8 7 11 14 12 11 18 16 16 15 14
Wind_Direction
85 85 99 73 91 90 89 83 98 89 76 93 118 100 124 112 138 146 144 144 144 140 140 140 136 134 133 133 130 127 124 122 120 119 117 114 111 107 109 109 106 105 102 103 103 105 103 96 90
92 86 80 81 82 86 89 104 87 84 90 97 79 95 107 112 118 138 142 146 147 143 142 141 140 138 136 135 133 130 125 123 121 120 118 114 109 107 109 111 109 106 105 104 104 103 101 95 89
93 79 77 85 86 90 96 109 106 96 104 94 68 77 84 114 130 140 146 149 148 146 145 144 142 140 140 138 136 133 129 126 123 123 121 115 110 107 109 110 109 110 108 108 106 103 99 91 87
70 75 98 78 89 86 79 120 106 98 93 82 92 74 89 117 131 139 144 147 148 148 147 147 145 144 142 142 140 136 133 130 128 128 124 119 112 108 110 110 109 108 107 108 107 103 97 92 89
79 80 82 80 77 76 97 110 110 99 87 86 92 97 105 117 130 135 139 143 146 148 148 149 149 148 146 144 143 140 137 134 132 131 129 123 118 113 112 112 111 110 107 109 109 105 98 93 90
87 86 90 79 78 83 109 128 113 89 93 99 94 105 104 120 127 134 137 138 144 147 148 149 150 151 151 148 146 144 141 138 136 135 133 129 126 122 119 118 114 113 110 112 110 108 104 97 88
82 96 87 90 52 97 104 121 119 99 103 104 108 101 117 126 128 129 133 135 140 145 147 149 149 149 149 148 148 146 144 142 141 139 137 134 132 130 129 126 123 118 117 118 118 114 102 94 89
67 100 80 81 85 100 85 138 126 114 90 113 109 108 132 133 131 129 130 132 139 142 146 147 148 148 148 147 147 146 145 143 141 139 137 133 135 132 134 138 136 135 143 152 156 165 150 119 101
51 61 112 119 109 112 95 113 117 102 112 115 74 124 133 133 132 130 129 131 136 142 146 147 148 148 147 146 146 147 147 147 145 143 142 139 141 131 128 140 148 162 186 209 235 236 244 245 243
55 60 80 101 130 82 162 119 115 110 120 105 105 122 135 138 136 136 134 135 137 142 145 148 148 147 147 146 146 146 146 146 146 141 141 136 142 144 141 133 172 226 239 243 242 251 255 258 257
21 66 73 116 89 116 125 69 124 126 144 130 131 136 141 145 145 141 142 143 143 144 144 146 148 148 148 147 147 146 144 145 148 147 139 138 137 136 148 144 328 275 261 257 248 261 259 256 256
63 58 133 42 207 325 104 152 148 147 151 140 133 145 144 150 152 150 150 147 148 149 148 146 147 147 148 147 147 146 148 142 140 145 145 146 148 154 162 317 298 289 278 269 261 259 259 254 254
17 101 105 47 49 118 115 179 173 144 146 140 135 148 149 156 156 156 155 154 150 152 153 154 154 154 157 154 153 153 154 154 149 145 147 145 137 114 277 314 308 299 287 270 263 266 256 257 256
42 66 110 51 57 46 27 57 140 143 145 142 141 151 159 155 160 157 159 161 160 158 159 159 161 159 161 161 163 164 166 164 166 161 157 163 187 298 311 319 317 314 301 282 270 260 253 249 258
46 70 77 72 71 38 26 103 115 130 153 147 148 157 166 168 168 165 162 161 161 163 162 164 164 164 163 166 167 163 165 164 169 175 178 192 290 324 326 327 324 320 308 291 264 255 242 243 251
71 44 42 80 88 33 27 137 158 148 161 159 155 160 168 178 176 170 169 169 165 165 164 163 163 165 164 160 162 166 161 160 162 185 198 204 329 338 338 337 336 333 323 300 254 234 223 228 229
38 45 51 62 118 59 63 63 184 170 167 170 163 163 174 180 178 174 173 173 173 172 169 167 168 169 173 174 174 175 174 161 150 150 173 207 310 348 358 355 356 1 6 22 160 152 173 173 190
52 347 6 74 176 116 37 42 101 157 170 177 172 167 171 178 181 176 176 177 179 180 181 178 178 178 175 172 164 162 167 176 169 161 172 214 269 314 343 2 10 22 35 58 98 120 123 124 127
321 332 298 15 164 155 256 32 82 157 172 179 186 180 178 181 182 181 177 177 180 182 181 180 182 182 178 173 173 173 176 171 179 190 235 270 270 310 345 9 22 38 53 74 93 102 103 101 102
291 332 326 293 176 181 273 326 56 166 184 190 191 193 188 180 182 183 178 179 180 180 183 185 185 184 183 183 183 180 174 184 204 279 264 260 267 269 21 17 26 51 63 80 90 93 94 91 85
255 338 332 53 191 292 208 312 295 197 187 195 205 201 196 187 182 182 182 185 184 183 183 183 184 187 188 187 184 179 178 184 216 235 353 143 177 156 50 34 40 62 74 86 91 90 85 77 64
300 285 322 349 330 250 240 299 252 215 212 214 205 203 201 189 185 184 185 187 188 189 189 187 187 189 191 191 188 185 187 184 206 192 167 156 138 120 70 25 37 55 81 93 93 80 67 62 46
253 296 290 313 277 281 290 312 272 213 232 217 205 203 200 195 189 188 190 193 196 192 193 194 192 192 194 196 198 198 203 207 200 160 155 143 144 128 6 40 45 70 88 94 94 88 71 48 26
270 270 319 347 344 34 269 193 270 197 215 197 198 194 193 195 194 192 191 193 195 196 196 197 196 195 195 196 199 202 206 204 198 200 199 194 170 169 177 84 53 53 74 96 101 57 29 29 18
278 235 260 304 68 204 317 321 246 250 215 192 192 191 194 197 195 191 192 194 196 195 197 199 199 198 199 200 200 203 204 205 205 205 202 211 216 220 190 140 27 336 281 289 313 314 304 328 329
231 199 213 238 251 284 316 245 284 230 237 208 193 194 191 197 196 194 193 193 194 197 198 199 198 200 200 201 204 208 211 213 216 219 216 214 211 203 210 260 285 278 258 276 273 281 292 308 305
235 243 230 244 272 277 266 303 143 54 35 160 184 189 195 195 195 199 197 196 197 200 199 199 199 201 202 204 206 210 215 218 218 222 227 230 227 237 246 263 277 279 277 279 276 277 274 291 297
226 255 259 260 256 302 292 273 233 249 336 305 178 182 193 191 193 195 197 196 199 201 203 204 205 205 207 209 212 215 218 221 224 224 226 228 230 243 255 267 265 274 281 277 282 282 278 278 283
280 277 283 235 227 227 262 258 227 184 201 228 211 180 183 189 194 196 198 198 197 199 202 205 206 209 211 213 215 217 219 221 224 226 229 235 244 254 261 260 264 273 279 289 295 283 278 278 277
270 273 255 239 243 237 247 268 225 241 238 209 226 199 191 193 196 200 200 200 199 201 202 203 206 209 213 215 216 219 221 226 229 233 235 242 252 262 267 282 300 283 279 281 316 275 272 275 273